Location: State Camp
(41.2367°N, 77.7828°W)
Time: 10:46:50
(UTC-04:00)

ADEOS Rocket - Visible Passes

Search period start: 27 April 2017 00:00
Search period end: 07 May 2017 00:00
Orbit: 858 x 1307 km, 98.7° (Epoch: 25 April)

Date Brightness Start Highest point End Pass type
(mag) Time Alt. Az. Time Alt. Az. Time Alt. Az.
27 Apr 3.9 03:02:34 10° NNE 03:08:24 44° E 03:10:33 34° SE visible
27 Apr 4.0 04:48:33 10° N 04:53:45 31° WNW 04:57:30 18° WSW visible
28 Apr 5.0 02:14:54 10° NE 02:19:09 19° E 02:21:04 17° ESE visible
28 Apr 3.1 03:58:56 10° N 04:05:01 71° WNW 04:08:02 35° SSW visible
29 Apr 3.7 03:10:01 10° NNE 03:16:04 52° E 03:18:33 35° SSE visible
29 Apr 4.2 04:56:15 10° N 05:01:18 27° WNW 05:05:31 15° WSW visible
30 Apr 4.9 02:22:02 10° NE 02:26:51 22° E 02:29:05 19° ESE visible
30 Apr 3.3 04:06:31 10° N 04:12:37 62° WNW 04:16:02 30° SW visible
01 May 3.5 03:17:29 10° NNE 03:23:43 60° ESE 03:26:34 35° SSE visible
01 May 4.4 05:04:00 10° NNW 05:08:51 24° WNW 05:13:32 12° WSW visible
02 May 4.7 02:29:17 10° NE 02:34:34 26° E 02:37:05 21° SE visible
02 May 3.4 04:14:09 10° N 04:20:14 54° WNW 04:24:03 26° SW visible
03 May 3.4 03:25:00 10° NNE 03:31:22 70° ESE 03:34:34 34° S visible
03 May 4.6 05:11:46 10° NNW 05:16:23 22° WNW 05:21:19 10° WSW visible
04 May 4.5 02:36:36 10° NE 02:42:16 31° E 02:45:06 23° SE visible
04 May 3.6 04:21:47 10° N 04:27:50 47° WNW 04:32:04 22° SW visible
05 May 5.5 01:50:08 10° ENE 01:52:52 13° E 01:55:37 10° ESE visible
05 May 3.3 03:32:31 10° NNE 03:39:01 80° ESE 03:42:35 32° S visible
05 May 4.7 05:19:36 10° NNW 05:23:55 19° WNW 05:28:30 10° WSW visible
06 May 4.3 02:43:57 10° NNE 02:49:58 36° E 02:53:06 25° SE visible
06 May 3.8 04:29:26 10° N 04:35:26 42° WNW 04:40:04 19° SW visible
